Tracking 25648 objects as of 17-May-2022
HD Live streaming from Space Station
objects crossing your sky now

COSMOS 2251 DEB

Track COSMOS 2251 DEB now!
10-day predictions


NORAD ID: 40233
Int'l Code: 1993-036BVN
Perigee: 712.4 km
Apogee: 800.4 km
Inclination: 73.9 °
Period: 99.8 minutes
Semi major axis: 7127 km
RCS: Unknown
Launch date: June 16, 1993
Source: Commonwealth of Independent States (former USSR) (CIS)
Launch site: PLESETSK MISSILE AND SPACE COMPLEX (PKMTR)

Note: This is SATELLITE DEBRIS
aabbcc
Your satellite tracking list
Your tracking list is empty




NASA's NSSDC Master Catalog

Two Line Element Set (TLE):
1 40233U 93036BVN 22135.72708666  .00003385  00000-0  99942-3 0  9993
2 40233  73.9490  48.1001 0061723  55.2125 305.4818 14.42810501402044
Source of the keplerian elements: AFSPC